Volver al catálogo

STARLINK-30485

ActivoComunicacionesVLEO
NORAD 57920·PAYLOAD·🇺🇸 United States

Lanzado Sep 24, 2023 desde Cape Canaveral Space Force Station

Loading…

Próximos Pases (próximas 24 horas)

TLE

ActualizadoSource: CelesTrak SupGP

Época: Sep 14, 2026, 22:11 UTC

1 57920C 23147H   26257.92479167 -.00103490  00000+0 -37477-2 0  2572
2 57920  43.0024 336.5666 0001797 265.5485 266.4163 15.27636293    15

Sigue STARLINK-30485 en tiempo real con AllMySat

Download on the App Store